This is the latest recevied weather packets stored in our database for station/object 4S6DRJ-13. If no packets are shown the sender has not sent any weather packets the latest 10 day(s).
| Time | Temp. | Humidity | Pressure | Rain* | Wind** | Luminosity | Snow |
|---|---|---|---|---|---|---|---|
| 1787757944 | 27.22° C | 90% | 1011.9 hPa | 0 mm | 0.45 m/s, 252° | 0 W/m² | - |
| 1787757883 | 26.67° C | 90% | 1011.9 hPa | 0 mm | 0.45 m/s, 188° | 0 W/m² | - |
| 1787757822 | 26.67° C | 90% | 1012 hPa | 0 mm | 0.45 m/s, 207° | 0 W/m² | - |
| 1787757762 | 26.67° C | 90% | 1012 hPa | 0 mm | 0.45 m/s, 236° | 0 W/m² | - |
| 1787757700 | 26.67° C | 90% | 1011.7 hPa | 0 mm | 0.89 m/s, 206° | 0 W/m² | - |
| 1787757639 | 26.67° C | 91% | 1011.7 hPa | 0 mm | 0 m/s | 0 W/m² | - |
| 1787757578 | 26.67° C | 91% | 1011.7 hPa | 0 mm | 0.89 m/s, 236° | 0 W/m² | - |
| 1787757517 | 26.67° C | 91% | 1011.8 hPa | 0 mm | 0.89 m/s, 222° | 0 W/m² | - |
| 1787757456 | 26.67° C | 91% | 1011.7 hPa | 0 mm | 0 m/s | 0 W/m² | - |
| 1787757395 | 26.67° C | 91% | 1011.9 hPa | 0 mm | 0.45 m/s, 215° | 0 W/m² | - |
| 1787757334 | 26.67° C | 91% | 1011.7 hPa | 0 mm | 0.45 m/s, 222° | 0 W/m² | - |
| 1787757273 | 26.67° C | 91% | 1011.8 hPa | 0 mm | 0 m/s | 0 W/m² | - |
| 1787757212 | 26.67° C | 91% | 1011.7 hPa | 0 mm | 0 m/s | 0 W/m² | - |
| 1787757151 | 26.67° C | 91% | 1011.5 hPa | 0 mm | 0 m/s | 0 W/m² | - |
| 1787757090 | 26.67° C | 91% | 1011.9 hPa | 0 mm | 0.45 m/s, 177° | 0 W/m² | - |
| 1787757029 | 26.67° C | 91% | 1011.6 hPa | 0 mm | 0.89 m/s, 244° | 0 W/m² | - |
| 1787756968 | 26.67° C | 92% | 1011.5 hPa | 0 mm | 0.89 m/s, 338° | 0 W/m² | - |
| 1787756907 | 26.67° C | 92% | 1011.5 hPa | 0 mm | 0.45 m/s, 251° | 0 W/m² | - |
| 1787756846 | 26.67° C | 92% | 1011.6 hPa | 0 mm | 0.45 m/s, 244° | 0 W/m² | - |
| 1787756785 | 26.67° C | 92% | 1011.5 hPa | 0 mm | 0.89 m/s, 287° | 0 W/m² | - |
| 1787756724 | 26.67° C | 92% | 1011.5 hPa | 0 mm | 0.45 m/s, 196° | 0 W/m² | - |
| 1787756663 | 26.67° C | 92% | 1011.5 hPa | 0 mm | 0.45 m/s, 215° | 0 W/m² | - |
| 1787756602 | 26.67° C | 92% | 1011.4 hPa | 0 mm | 0 m/s | 0 W/m² | - |
| 1787756541 | 26.67° C | 92% | 1011.5 hPa | 0 mm | 0 m/s | 0 W/m² | - |
| 1787756480 | 26.67° C | 92% | 1011.4 hPa | 0 mm | 0.45 m/s, 282° | 0 W/m² | - |
* Rain latest hour (hover to see other rain measurements)
** Current wind speed in m/s (hover to see current wind gust speed)